Voltar ao catálogo

OPS 4682 DEB

AtivoPO
NORAD 38380·DEBRIS·🇺🇸 United States

Lançado Apr 3, 1965 de Vandenberg Space Force Base

Loading…

Próximas Passagens (próximas 24 horas)

TLE

AtualizadoSource: Space-Track

Época: Sep 14, 2026, 03:42 UTC

1 38380U 65027CH  26257.15450441 -.00000244  00000-0 -83793-3 0  9993
2 38380  90.2591 323.3660 0021989  96.8549 263.5076 12.99913836589173

Acompanhe OPS 4682 DEB em tempo real com AllMySat

Download on the App Store